Iron Mountain, MI

12:58 PM CST on February 12, 2016 (GMT -0600)
Ford

Weather History for KIMT - March, 2013

Change the Weather History Date:

Monday, March 18, 2013

  Actual Average Record
Temperature  
Mean Temperature 21 °F -  
Max Temperature 32 °F 39 °F 79 °F (2012)
Min Temperature 10 °F 17 °F -27 °F (1939)
Degree Days  
Heating Degree Days 44    
Moisture  
Dew Point 20 °F    
Average Humidity 87    
Maximum Humidity 96    
Minimum Humidity 61    
Precipitation  
Precipitation 0.06 in - - ()
Sea Level Pressure  
Sea Level Pressure 29.65 in    
Wind  
Wind Speed 5 mph (SSE)    
Max Wind Speed 13 mph    
Max Gust Speed 22 mph    
Visibility 5 miles    
Events Fog , Snow    
Averages and records for this station are not official NWS values.
T = Trace of Precipitation, MM = Missing Value Source: NWS Daily Summary

Daily Weather History Graph

Daily Weather History Graph

Search for Another Location

Airport or City:

Trip Planner

Search our weather history database for the weather conditions in past years. The results will help you decide how hot, cold, wet, or windy it might be!

Date:

Astronomy

Mar. 18, 2013 Rise Set
Actual Time 6:58 AM CDT 7:02 PM CDT
Civil Twilight 6:29 AM CDT 7:32 PM CDT
Nautical Twilight 5:54 AM CDT 8:07 PM CDT
Astronomical Twilight 5:18 AM CDT 8:43 PM CDT
Moon 10:40 AM CDT (3/18) 1:19 AM CDT (3/18)
Length of Visible Light 13h 03m
Length of Day
12h 03m
Waxing Crescent, 41% of the Moon is Illuminated
Mar 18
Waxing Crescent
Mar 19
First Quarter
Mar 27
Full
Apr 2
Last Quarter
Apr 10
New

Hourly Weather History & Observations

Time (CDT) Temp. Windchill Dew Point Humidity Pressure Visibility Wind Dir Wind Speed Gust Speed Precip Events Conditions
12:54 AM 10.9 °F - 8.1 °F 88% 30.09 in 10.0 mi Calm Calm - N/A   Clear
1:54 AM 10.9 °F - 8.1 °F 88% 30.08 in 10.0 mi Calm Calm - N/A   Overcast
2:54 AM 12.0 °F - 9.0 °F 88% 30.06 in 10.0 mi Calm Calm - N/A   Mostly Cloudy
3:54 AM 12.0 °F 4.1 °F 9.0 °F 88% 30.02 in 10.0 mi SSE 4.6 mph - N/A   Partly Cloudy
4:20 AM 14.0 °F 8.2 °F 10.4 °F 86% 29.93 in 10.0 mi SSE 3.5 mph - N/A   Mostly Cloudy
4:54 AM 16.0 °F 7.4 °F 12.0 °F 84% 29.98 in 10.0 mi SE 5.8 mph - N/A   Overcast
5:54 AM 18.0 °F 8.7 °F 14.0 °F 84% 29.96 in 10.0 mi SE 6.9 mph - N/A   Mostly Cloudy
6:11 AM 17.6 °F 10.7 °F 12.2 °F 79% 29.90 in 10.0 mi SSE 4.6 mph - N/A   Scattered Clouds
6:33 AM 17.6 °F 8.2 °F 14.0 °F 86% 29.89 in 10.0 mi SE 6.9 mph - N/A   Mostly Cloudy
6:54 AM 18.0 °F 6.9 °F 15.1 °F 88% 29.93 in 10.0 mi SE 9.2 mph - N/A   Overcast
7:54 AM 19.0 °F 7.5 °F 15.1 °F 85% 29.91 in 10.0 mi SE 10.4 mph - N/A   Overcast
8:54 AM 19.9 °F 7.9 °F 17.1 °F 89% 29.87 in 10.0 mi SE 11.5 mph - N/A   Overcast
9:54 AM 21.9 °F 10.4 °F 18.0 °F 85% 29.84 in 10.0 mi SSE 11.5 mph 18.4 mph N/A   Overcast
10:54 AM 25.0 °F 13.6 °F 19.0 °F 78% 29.80 in 10.0 mi SE 12.7 mph - N/A   Overcast
11:29 AM 26.6 °F 15.7 °F 17.6 °F 69% 29.70 in 10.0 mi SE 12.7 mph 21.9 mph N/A   Overcast
11:54 AM 28.9 °F 18.6 °F 19.0 °F 67% 29.74 in 10.0 mi SE 12.7 mph 20.7 mph N/A   Mostly Cloudy
12:54 PM 30.9 °F 22.8 °F 19.9 °F 64% 29.70 in 10.0 mi SSE 9.2 mph - N/A   Mostly Cloudy
1:54 PM 32.0 °F 23.6 °F 19.9 °F 61% 29.64 in 10.0 mi ESE 10.4 mph 18.4 mph N/A   Overcast
2:54 PM 30.0 °F 20.0 °F 19.9 °F 66% 29.61 in 7.0 mi SSE 12.7 mph - 0.00 in Snow Light Snow
3:05 PM 28.4 °F 19.1 °F 21.2 °F 74% 29.54 in 1.8 mi SE 10.4 mph - 0.00 in Snow Light Snow
3:22 PM 28.4 °F 20.4 °F 24.8 °F 86% 29.54 in 0.5 mi SE 8.1 mph - 0.00 in Fog , Snow Snow
3:32 PM 26.6 °F 17.5 °F 24.8 °F 93% 29.54 in 0.5 mi SE 9.2 mph - 0.00 in Fog , Snow Snow
3:54 PM 27.0 °F 21.6 °F 25.0 °F 92% 29.60 in 0.5 mi SSE 4.6 mph - 0.00 in Fog , Snow Snow
4:06 PM 26.6 °F 18.2 °F 24.8 °F 93% 29.55 in 0.5 mi South 8.1 mph - 0.01 in Fog , Snow Snow
4:08 PM 26.6 °F 19.1 °F 24.8 °F 93% 29.55 in 0.2 mi SSE 6.9 mph - 0.01 in Fog , Snow Snow
4:54 PM 27.0 °F 19.5 °F 24.1 °F 89% 29.58 in 0.2 mi ESE 6.9 mph - 0.03 in Fog , Snow Snow
5:00 PM 26.6 °F 18.2 °F 24.8 °F 93% 29.52 in 0.5 mi SE 8.1 mph - 0.00 in Fog , Snow Snow
5:31 PM 26.6 °F 20.0 °F 24.8 °F 93% 29.51 in 0.2 mi SE 5.8 mph - 0.02 in Fog , Snow Snow
5:51 PM 26.6 °F - 24.8 °F 93% 29.50 in 0.5 mi Calm Calm - 0.03 in Fog , Snow Snow
5:54 PM 26.1 °F - 25.0 °F 96% 29.56 in 0.5 mi Calm Calm - 0.03 in Fog , Snow Light Snow
6:01 PM 26.6 °F 22.6 °F 24.8 °F 93% 29.49 in 0.5 mi SE 3.5 mph - 0.00 in Fog , Snow Light Snow
6:19 PM 26.6 °F - 24.8 °F 93% 29.49 in 0.5 mi Calm Calm - 0.00 in Fog , Snow Light Snow
6:38 PM 26.6 °F - 24.8 °F 93% 29.48 in 0.8 mi Calm Calm - 0.00 in Snow Light Snow
6:54 PM 27.0 °F - 25.0 °F 92% 29.54 in 1.0 mi Calm Calm - 0.00 in Snow Light Snow
7:25 PM 26.6 °F - 24.8 °F 93% 29.47 in 1.8 mi Calm Calm - 0.00 in Snow Light Snow
7:41 PM 26.6 °F - 24.8 °F 93% 29.47 in 1.8 mi Calm Calm - 0.00 in Snow Light Snow
7:54 PM 27.0 °F - 24.1 °F 89% 29.52 in 2.5 mi Calm Calm - 0.00 in Snow Light Snow
8:18 PM 26.6 °F - 24.8 °F 93% 29.45 in 2.5 mi Calm Calm - 0.00 in Snow Light Snow
8:24 PM 26.6 °F - 24.8 °F 93% 29.45 in 3.0 mi Calm Calm - 0.00 in Snow Light Snow
8:38 PM 26.6 °F - 24.8 °F 93% 29.45 in 2.0 mi Calm Calm - 0.00 in Snow Light Snow
8:54 PM 26.1 °F - 24.1 °F 92% 29.51 in 2.0 mi Calm Calm - 0.00 in Snow Light Snow
9:54 PM 26.1 °F - 24.1 °F 92% 29.49 in 2.5 mi Calm Calm - 0.00 in Snow Light Snow
10:14 PM 26.6 °F 21.2 °F 24.8 °F 93% 29.43 in 3.0 mi WSW 4.6 mph - 0.00 in Snow Light Snow
10:54 PM 26.1 °F 21.9 °F 23.0 °F 88% 29.47 in 2.0 mi SW 3.5 mph - 0.00 in Snow Light Snow
11:02 PM 26.6 °F - 23.0 °F 86% 29.41 in 1.8 mi Calm Calm - 0.00 in Snow Light Snow
11:47 PM 26.6 °F 21.2 °F 23.0 °F 86% 29.41 in 3.0 mi WSW 4.6 mph - 0.00 in Snow Light Snow
11:54 PM 26.1 °F 17.6 °F 23.0 °F 88% 29.45 in 3.0 mi WSW 8.1 mph - 0.00 in Snow Light Snow